Location: Baili�vre
(50.0696°N, 4.2409°E)
Time: 15:08:07
(UTC+00:00)

SL-4 R/B - Pass Details

Date: 08 August 2020
Orbit: 428 x 665 km, 51.6° (Epoch: 18 September)

Event Time Altitude Azimuth Distance (km) Brightness Sun altitude
Rises 22:21:17 0° 258° (WSW) 2,602 5.6 -21.4°
Reaches altitude 10° 22:23:33 10° 260° (W) 1,679 4.6 -21.5°
Enters shadow 22:27:12 78° 319° (NW) 482 1.7 -21.7°
